| time (UTC) | temp C | wind direction | speed KPH | gust KPH | rain 1hr cm | rain 24hr cm | rain mn cm | humidity % | barometer mb |
| 20260507224521 | 18 | 180 | 0.0 | 0.0 | 0.00 | 0.00 | 0.00 | 7 | 1009.0 |
| 20260507223926 | 18 | 180 | 0.0 | 0.0 | 0.00 | 0.00 | 0.00 | 7 | 1009.0 |
| 20260507223330 | 19 | 180 | 0.0 | 0.0 | 0.00 | 0.00 | 0.00 | 7 | 1009.0 |
| 20260507222210 | 19 | 180 | 0.0 | 1.6 | 0.00 | 0.00 | 0.00 | 7 | 1009.0 |
| 20260507221101 | 19 | 270 | 0.0 | 0.0 | 0.00 | 0.00 | 0.00 | 7 | 1009.0 |
| 20260507220504 | 19 | 270 | 0.0 | 0.0 | 0.00 | 0.00 | 0.00 | 7 | 1009.0 |
| 20260507215908 | 20 | 270 | 0.0 | 0.0 | 0.00 | 0.00 | 0.00 | 7 | 1009.0 |
| 20260507215312 | 20 | 270 | 0.0 | 0.0 | 0.00 | 0.00 | 0.00 | 7 | 1009.0 |
| 20260507214713 | 20 | 270 | 0.0 | 0.0 | 0.00 | 0.00 | 0.00 | 6 | 1009.0 |
| 20260507214116 | 20 | 270 | 0.0 | 0.0 | 0.00 | 0.00 | 0.00 | 6 | 1009.0 |
| 20260507213521 | 20 | 270 | 0.0 | 0.0 | 0.00 | 0.00 | 0.00 | 6 | 1009.0 |
| 20260507212925 | 20 | 270 | 0.0 | 0.0 | 0.00 | 0.00 | 0.00 | 6 | 1009.0 |
| 20260507212329 | 20 | 270 | 0.0 | 0.0 | 0.00 | 0.00 | 0.00 | 6 | 1009.0 |
| 20260507211734 | 20 | 270 | 0.0 | 0.0 | 0.00 | 0.00 | 0.00 | 6 | 1009.0 |
| 20260507211137 | 20 | 270 | 3.2 | 3.2 | 0.00 | 0.00 | 0.00 | 6 | 1009.0 |
| 20260507210541 | 20 | 315 | 0.0 | 0.0 | 0.00 | 0.00 | 0.00 | 6 | 1009.0 |
| 20260507205945 | 20 | 225 | 0.0 | 0.0 | 0.00 | 0.00 | 0.00 | 6 | 1009.0 |
| 20260507205350 | 21 | 225 | 0.0 | 0.0 | 0.00 | 0.00 | 0.00 | 6 | 1009.0 |
| 20260507204754 | 21 | 225 | 0.0 | 0.0 | 0.00 | 0.00 | 0.00 | 6 | 1009.0 |
| 20260507204159 | 21 | 225 | 0.0 | 0.0 | 0.00 | 0.00 | 0.00 | 6 | 1009.0 |
| 20260507203603 | 21 | 225 | 0.0 | 0.0 | 0.00 | 0.00 | 0.00 | 6 | 1009.0 |
| 20260507203008 | 21 | 225 | 0.0 | 0.0 | 0.00 | 0.00 | 0.00 | 6 | 1009.0 |
| 20260507202409 | 21 | 225 | 0.0 | 0.0 | 0.00 | 0.00 | 0.00 | 6 | 1009.0 |
| 20260507201813 | 21 | 225 | 0.0 | 0.0 | 0.00 | 0.00 | 0.00 | 6 | 1009.0 |
| 20260507200705 | 21 | 225 | 0.0 | 0.0 | 0.00 | 0.00 | 0.00 | 6 | 1009.0 |
| 20260507200106 | 21 | 225 | 0.0 | 0.0 | 0.00 | 0.00 | 0.00 | 6 | 1008.0 |
| 20260507195507 | 21 | 225 | 0.0 | 0.0 | 0.00 | 0.00 | 0.00 | 6 | 1008.0 |
| 20260507194912 | 21 | 225 | 0.0 | 3.2 | 0.00 | 0.00 | 0.00 | 6 | 1008.0 |
| 20260507194316 | 21 | 225 | 1.6 | 3.2 | 0.00 | 0.00 | 0.00 | 6 | 1008.0 |
| 20260507193721 | 21 | 225 | 3.2 | 3.2 | 0.00 | 0.00 | 0.00 | 6 | 1008.0 |
| 20260507193122 | 21 | 225 | 1.6 | 3.2 | 0.00 | 0.00 | 0.00 | 6 | 1008.0 |
| 20260507192527 | 21 | 225 | 0.0 | 3.2 | 0.00 | 0.00 | 0.00 | 6 | 1008.0 |
| 20260507191928 | 22 | 225 | 1.6 | 3.2 | 0.00 | 0.00 | 0.00 | 6 | 1008.0 |
| 20260507191333 | 22 | 225 | 3.2 | 3.2 | 0.00 | 0.00 | 0.00 | 6 | 1008.0 |
| 20260507190736 | 22 | 225 | 0.0 | 1.6 | 0.00 | 0.00 | 0.00 | 6 | 1008.0 |
| 20260507190140 | 22 | 225 | 3.2 | 3.2 | 0.00 | 0.00 | 0.00 | 5 | 1008.0 |
| 20260507185545 | 23 | 225 | 3.2 | 4.8 | 0.00 | 0.00 | 0.00 | 5 | 1008.0 |
| 20260507184950 | 23 | 225 | 3.2 | 3.2 | 0.00 | 0.00 | 0.00 | 5 | 1008.0 |
| 20260507184355 | 23 | 225 | 1.6 | 1.6 | 0.00 | 0.00 | 0.00 | 5 | 1008.0 |
| 20260507183246 | 24 | 225 | 3.2 | 3.2 | 0.00 | 0.00 | 0.00 | 5 | 1008.0 |
| 20260507182651 | 25 | 225 | 3.2 | 3.2 | 0.00 | 0.00 | 0.00 | 5 | 1008.0 |
| 20260507182056 | 25 | 225 | 3.2 | 3.2 | 0.00 | 0.00 | 0.00 | 5 | 1008.0 |
| 20260507181501 | 26 | 225 | 3.2 | 3.2 | 0.00 | 0.00 | 0.00 | 5 | 1008.0 |
| 20260507180905 | 26 | 225 | 4.8 | 4.8 | 0.00 | 0.00 | 0.00 | 4 | 1008.0 |
| 20260507180310 | 27 | 225 | 4.8 | 6.4 | 0.00 | 0.00 | 0.00 | 4 | 1008.0 |
| 20260507175714 | 29 | 225 | 4.8 | 4.8 | 0.00 | 0.00 | 0.00 | 4 | 1008.0 |
| 20260507175119 | 31 | 225 | 1.6 | 1.6 | 0.00 | 0.00 | 0.00 | 3 | 1008.0 |
| 20260507174524 | 31 | 180 | 0.0 | 1.6 | 0.00 | 0.00 | 0.00 | 4 | 1007.0 |
| 20260507173929 | 32 | 180 | 1.6 | 1.6 | 0.00 | 0.00 | 0.00 | 4 | 1007.0 |
| 20260507173334 | 32 | 180 | 0.0 | 1.6 | 0.00 | 0.00 | 0.00 | 4 | 1007.0 |
| 20260507172739 | 31 | 180 | 0.0 | 0.0 | 0.00 | 0.00 | 0.00 | 4 | 1007.0 |
| 20260507172144 | 31 | 180 | 0.0 | 0.0 | 0.00 | 0.00 | 0.00 | 3 | 1007.0 |
| 20260507171548 | 32 | 180 | 0.0 | 0.0 | 0.00 | 0.00 | 0.00 | 4 | 1007.0 |
| 20260507170953 | 31 | 135 | 0.0 | 0.0 | 0.00 | 0.00 | 0.00 | 4 | 1007.0 |
| 20260507170358 | 31 | 135 | 0.0 | 1.6 | 0.00 | 0.00 | 0.00 | 4 | 1007.0 |
| 20260507165759 | 30 | 135 | 0.0 | 1.6 | 0.00 | 0.00 | 0.00 | 4 | 1007.0 |
| 20260507165204 | 30 | 135 | 1.6 | 1.6 | 0.00 | 0.00 | 0.00 | 4 | 1007.0 |
| 20260507164609 | 29 | 180 | 0.0 | 1.6 | 0.00 | 0.00 | 0.00 | 4 | 1007.0 |
| 20260507164014 | 29 | 180 | 1.6 | 1.6 | 0.00 | 0.00 | 0.00 | 4 | 1007.0 |
| 20260507163418 | 28 | 180 | 1.6 | 3.2 | 0.00 | 0.00 | 0.00 | 4 | 1007.0 |
| 20260507162823 | 29 | 158 | 1.6 | 3.2 | 0.00 | 0.00 | 0.00 | 4 | 1007.0 |
| 20260507162228 | 28 | 180 | 3.2 | 3.2 | 0.00 | 0.00 | 0.00 | 4 | 1007.0 |
| 20260507161634 | 28 | 180 | 3.2 | 4.8 | 0.00 | 0.00 | 0.00 | 4 | 1007.0 |
| 20260507161038 | 28 | 225 | 4.8 | 4.8 | 0.00 | 0.00 | 0.00 | 4 | 1007.0 |
| 20260507160443 | 28 | 135 | 3.2 | 3.2 | 0.00 | 0.00 | 0.00 | 4 | 1007.0 |
| 20260507155848 | 27 | 135 | 0.0 | 0.0 | 0.00 | 0.00 | 0.00 | 4 | 1007.0 |
| 20260507155253 | 27 | 180 | 1.6 | 3.2 | 0.00 | 0.00 | 0.00 | 4 | 1007.0 |
| 20260507154658 | 27 | 225 | 0.0 | 1.6 | 0.00 | 0.00 | 0.00 | 4 | 1007.0 |
| 20260507154100 | 27 | 180 | 0.0 | 1.6 | 0.00 | 0.00 | 0.00 | 4 | 1007.0 |
| 20260507153505 | 26 | 180 | 0.0 | 0.0 | 0.00 | 0.00 | 0.00 | 4 | 1007.0 |
| 20260507152909 | 26 | 45 | 1.6 | 1.6 | 0.00 | 0.00 | 0.00 | 4 | 1007.0 |
| 20260507152311 | 26 | 225 | 1.6 | 4.8 | 0.00 | 0.00 | 0.00 | 4 | 1007.0 |
| 20260507151715 | 27 | 225 | 0.0 | 1.6 | 0.00 | 0.00 | 0.00 | 4 | 1007.0 |
| 20260507151119 | 27 | 0 | 4.8 | 4.8 | 0.00 | 0.00 | 0.00 | 4 | 1007.0 |
| 20260507150524 | 27 | 0 | 3.2 | 3.2 | 0.00 | 0.00 | 0.00 | 4 | 1007.0 |
| 20260507145928 | 27 | 180 | 0.0 | 4.8 | 0.00 | 0.00 | 0.00 | 4 | 1007.0 |
| 20260507145333 | 27 | 225 | 0.0 | 1.6 | 0.00 | 0.00 | 0.00 | 4 | 1007.0 |
| 20260507144738 | 27 | 180 | 4.8 | 4.8 | 0.00 | 0.00 | 0.00 | 4 | 1007.0 |
| 20260507144143 | 27 | 225 | 3.2 | 3.2 | 0.00 | 0.00 | 0.00 | 4 | 1007.0 |
| 20260507143548 | 27 | 135 | 1.6 | 3.2 | 0.00 | 0.00 | 0.00 | 4 | 1007.0 |
| 20260507142952 | 27 | 225 | 1.6 | 1.6 | 0.00 | 0.00 | 0.00 | 4 | 1007.0 |
| 20260507142357 | 27 | 315 | 0.0 | 1.6 | 0.00 | 0.00 | 0.00 | 4 | 1007.0 |
| 20260507141802 | 27 | 135 | 0.0 | 4.8 | 0.00 | 0.00 | 0.00 | 4 | 1007.0 |
| 20260507141203 | 27 | 0 | 0.0 | 3.2 | 0.00 | 0.00 | 0.00 | 4 | 1007.0 |
| 20260507140609 | 26 | 180 | 0.0 | 1.6 | 0.00 | 0.00 | 0.00 | 4 | 1008.0 |
| 20260507140010 | 26 | 23 | 1.6 | 1.6 | 0.00 | 0.00 | 0.00 | 5 | 1008.0 |
| 20260507135414 | 26 | 135 | 0.0 | 1.6 | 0.00 | 0.00 | 0.00 | 4 | 1008.0 |
| 20260507134819 | 26 | 315 | 1.6 | 3.2 | 0.00 | 0.00 | 0.00 | 5 | 1008.0 |
| 20260507134224 | 26 | 315 | 3.2 | 3.2 | 0.00 | 0.00 | 0.00 | 5 | 1008.0 |
| 20260507133629 | 26 | 180 | 3.2 | 3.2 | 0.00 | 0.00 | 0.00 | 5 | 1008.0 |
| 20260507133034 | 26 | 45 | 0.0 | 6.4 | 0.00 | 0.00 | 0.00 | 4 | 1008.0 |
| 20260507132438 | 26 | 0 | 4.8 | 4.8 | 0.00 | 0.00 | 0.00 | 5 | 1008.0 |
| 20260507131843 | 25 | 270 | 1.6 | 3.2 | 0.00 | 0.00 | 0.00 | 4 | 1008.0 |
| 20260507131248 | 25 | 225 | 0.0 | 1.6 | 0.00 | 0.00 | 0.00 | 5 | 1008.0 |
| 20260507130653 | 25 | 338 | 3.2 | 3.2 | 0.00 | 0.00 | 0.00 | 5 | 1008.0 |
| 20260507130054 | 25 | 315 | 1.6 | 6.4 | 0.00 | 0.00 | 0.00 | 5 | 1008.0 |
| 20260507125459 | 25 | 270 | 1.6 | 4.8 | 0.00 | 0.00 | 0.00 | 5 | 1008.0 |
| 20260507124903 | 25 | 315 | 4.8 | 6.4 | 0.00 | 0.00 | 0.00 | 5 | 1008.0 |
| 20260507124305 | 25 | 315 | 0.0 | 4.8 | 0.00 | 0.00 | 0.00 | 5 | 1008.0 |
| 20260507123710 | 24 | 0 | 3.2 | 3.2 | 0.00 | 0.00 | 0.00 | 5 | 1008.0 |
| 20260507123114 | 24 | 225 | 3.2 | 3.2 | 0.00 | 0.00 | 0.00 | 5 | 1008.0 |
| 20260507122515 | 24 | 270 | 6.4 | 6.4 | 0.00 | 0.00 | 0.00 | 5 | 1008.0 |
| 20260507121920 | 24 | 180 | 0.0 | 3.2 | 0.00 | 0.00 | 0.00 | 5 | 1008.0 |
| 20260507121325 | 24 | 0 | 4.8 | 4.8 | 0.00 | 0.00 | 0.00 | 5 | 1008.0 |
| 20260507120729 | 24 | 45 | 4.8 | 4.8 | 0.00 | 0.00 | 0.00 | 5 | 1008.0 |
| 20260507120134 | 24 | 180 | 3.2 | 3.2 | 0.00 | 0.00 | 0.00 | 5 | 1008.0 |
| 20260507115536 | 23 | 225 | 1.6 | 1.6 | 0.00 | 0.00 | 0.00 | 6 | 1008.0 |
| 20260507114940 | 23 | 180 | 1.6 | 1.6 | 0.00 | 0.00 | 0.00 | 6 | 1008.0 |
| 20260507114345 | 23 | 225 | 1.6 | 1.6 | 0.00 | 0.00 | 0.00 | 6 | 1008.0 |
| 20260507113747 | 23 | 315 | 4.8 | 4.8 | 0.00 | 0.00 | 0.00 | 5 | 1008.0 |
| 20260507113148 | 23 | 0 | 1.6 | 3.2 | 0.00 | 0.00 | 0.00 | 6 | 1008.0 |
| 20260507112553 | 23 | 270 | 3.2 | 3.2 | 0.00 | 0.00 | 0.00 | 6 | 1009.0 |
| 20260507111957 | 22 | 315 | 3.2 | 3.2 | 0.00 | 0.00 | 0.00 | 6 | 1009.0 |
| 20260507111402 | 22 | 225 | 0.0 | 3.2 | 0.00 | 0.00 | 0.00 | 6 | 1009.0 |
| 20260507110807 | 22 | 45 | 1.6 | 3.2 | 0.00 | 0.00 | 0.00 | 6 | 1009.0 |
| 20260507110211 | 22 | 45 | 3.2 | 8.0 | 0.00 | 0.00 | 0.00 | 6 | 1009.0 |
| 20260507105616 | 22 | 45 | 1.6 | 3.2 | 0.00 | 0.00 | 0.00 | 6 | 1009.0 |
| 20260507105021 | 22 | 45 | 8.0 | 8.0 | 0.00 | 0.00 | 0.00 | 6 | 1009.0 |
| 20260507104422 | 22 | 45 | 1.6 | 3.2 | 0.00 | 0.00 | 0.00 | 6 | 1009.0 |
| 20260507103823 | 21 | 315 | 3.2 | 4.8 | 0.00 | 0.00 | 0.00 | 6 | 1009.0 |
| 20260507103228 | 21 | 0 | 6.4 | 6.4 | 0.00 | 0.00 | 0.00 | 6 | 1009.0 |
| 20260507102633 | 21 | 225 | 3.2 | 3.2 | 0.00 | 0.00 | 0.00 | 6 | 1009.0 |
| 20260507102038 | 21 | 225 | 6.4 | 6.4 | 0.00 | 0.00 | 0.00 | 7 | 1009.0 |
| 20260507101440 | 21 | 3.2 | 6.4 | 0.00 | 0.00 | 0.00 | 7 | 1009.0 | |
| 20260507100845 | 21 | 23 | 3.2 | 3.2 | 0.00 | 0.00 | 0.00 | 6 | 1009.0 |
| 20260507100246 | 21 | 0 | 4.8 | 4.8 | 0.00 | 0.00 | 0.00 | 6 | 1009.0 |
| 20260507095647 | 20 | 0.0 | 4.8 | 0.00 | 0.00 | 0.00 | 7 | 1009.0 | |
| 20260507095049 | 20 | 0 | 4.8 | 4.8 | 0.00 | 0.00 | 0.00 | 7 | 1009.0 |
| 20260507094453 | 20 | 45 | 9.7 | 9.7 | 0.00 | 0.00 | 0.00 | 7 | 1009.0 |
| 20260507093855 | 20 | 45 | 3.2 | 3.2 | 0.00 | 0.00 | 0.00 | 7 | 1009.0 |
| 20260507093300 | 20 | 0.0 | 1.6 | 0.00 | 0.00 | 0.00 | 7 | 1009.0 | |
| 20260507092704 | 19 | 0.0 | 3.2 | 0.00 | 0.00 | 0.00 | 7 | 1009.0 | |
| 20260507092107 | 19 | 45 | 1.6 | 1.6 | 0.00 | 0.00 | 0.00 | 7 | 1009.0 |
| 20260507091513 | 19 | 0 | 1.6 | 1.6 | 0.00 | 0.00 | 0.00 | 7 | 1009.0 |
| 20260507090917 | 18 | 0 | 1.6 | 4.8 | 0.00 | 0.00 | 0.00 | 7 | 1009.0 |
| 20260507090322 | 18 | 45 | 1.6 | 3.2 | 0.00 | 0.00 | 0.00 | 7 | 1009.0 |
| 20260507085726 | 18 | 45 | 4.8 | 4.8 | 0.00 | 0.00 | 0.00 | 7 | 1009.0 |
| 20260507085131 | 18 | 45 | 4.8 | 8.0 | 0.00 | 0.00 | 0.00 | 7 | 1009.0 |
| 20260507084536 | 18 | 45 | 6.4 | 6.4 | 0.00 | 0.00 | 0.00 | 7 | 1009.0 |
| 20260507083941 | 18 | 45 | 6.4 | 6.4 | 0.00 | 0.00 | 0.00 | 7 | 1009.0 |
| 20260507083346 | 18 | 45 | 6.4 | 6.4 | 0.00 | 0.00 | 0.00 | 8 | 1009.0 |
| 20260507082751 | 17 | 45 | 3.2 | 3.2 | 0.00 | 0.00 | 0.00 | 8 | 1009.0 |
| 20260507082152 | 17 | 45 | 1.6 | 3.2 | 0.00 | 0.00 | 0.00 | 8 | 1009.0 |
| 20260507081556 | 17 | 180 | 0.0 | 1.6 | 0.00 | 0.00 | 0.00 | 8 | 1009.0 |
| 20260507081001 | 16 | 45 | 1.6 | 3.2 | 0.00 | 0.00 | 0.00 | 8 | 1009.0 |
| 20260507080402 | 16 | 0 | 4.8 | 4.8 | 0.00 | 0.00 | 0.00 | 9 | 1009.0 |
| 20260507075807 | 16 | 0 | 4.8 | 4.8 | 0.00 | 0.00 | 0.00 | 9 | 1009.0 |
| 20260507075212 | 16 | 0 | 3.2 | 4.8 | 0.00 | 0.00 | 0.00 | 8 | 1009.0 |
| 20260507074617 | 16 | 315 | 3.2 | 4.8 | 0.00 | 0.00 | 0.00 | 9 | 1009.0 |
| 20260507074021 | 16 | 0 | 4.8 | 6.4 | 0.00 | 0.00 | 0.00 | 9 | 1009.0 |
| 20260507073426 | 16 | 0 | 4.8 | 6.4 | 0.00 | 0.00 | 0.00 | 8 | 1009.0 |
| 20260507072830 | 16 | 0 | 6.4 | 6.4 | 0.00 | 0.00 | 0.00 | 8 | 1009.0 |
| 20260507072235 | 16 | 23 | 0.0 | 1.6 | 0.00 | 0.00 | 0.00 | 8 | 1009.0 |
| 20260507071640 | 16 | 315 | 0.0 | 4.8 | 0.00 | 0.00 | 0.00 | 8 | 1009.0 |
| 20260507071044 | 16 | 0 | 4.8 | 6.4 | 0.00 | 0.00 | 0.00 | 8 | 1008.0 |
| 20260507070450 | 16 | 0 | 4.8 | 6.4 | 0.00 | 0.00 | 0.00 | 8 | 1008.0 |
| 20260507065854 | 16 | 0 | 3.2 | 3.2 | 0.00 | 0.00 | 0.00 | 9 | 1008.0 |
| 20260507065259 | 16 | 180 | 0.0 | 0.0 | 0.00 | 0.00 | 0.00 | 8 | 1008.0 |
| 20260507064704 | 16 | 270 | 1.6 | 3.2 | 0.00 | 0.00 | 0.00 | 8 | 1008.0 |
| 20260507064105 | 16 | 0 | 1.6 | 6.4 | 0.00 | 0.00 | 0.00 | 8 | 1008.0 |
| 20260507063510 | 16 | 0 | 6.4 | 6.4 | 0.00 | 0.00 | 0.00 | 9 | 1008.0 |
| 20260507062912 | 16 | 135 | 3.2 | 3.2 | 0.00 | 0.00 | 0.00 | 9 | 1008.0 |
| 20260507062313 | 16 | 180 | 0.0 | 0.0 | 0.00 | 0.00 | 0.00 | 8 | 1008.0 |
| 20260507061714 | 16 | 225 | 0.0 | 0.0 | 0.00 | 0.00 | 0.00 | 8 | 1008.0 |
| 20260507061119 | 16 | 225 | 0.0 | 3.2 | 0.00 | 0.00 | 0.00 | 8 | 1008.0 |
| 20260507060524 | 16 | 135 | 3.2 | 3.2 | 0.00 | 0.00 | 0.00 | 8 | 1008.0 |
| 20260507055929 | 16 | 135 | 3.2 | 3.2 | 0.00 | 0.00 | 0.00 | 8 | 1008.0 |
| 20260507055334 | 16 | 135 | 3.2 | 3.2 | 0.00 | 0.00 | 0.00 | 8 | 1008.0 |
| 20260507054738 | 16 | 135 | 1.6 | 3.2 | 0.00 | 0.00 | 0.00 | 8 | 1008.0 |
| 20260507054143 | 16 | 45 | 0.0 | 4.8 | 0.00 | 0.00 | 0.00 | 8 | 1008.0 |
| 20260507053548 | 16 | 0 | 3.2 | 3.2 | 0.00 | 0.00 | 0.00 | 8 | 1008.0 |
| 20260507052952 | 16 | 270 | 0.0 | 3.2 | 0.00 | 0.00 | 0.00 | 8 | 1008.0 |
| 20260507052357 | 16 | 338 | 1.6 | 1.6 | 0.00 | 0.00 | 0.00 | 8 | 1008.0 |
| 20260507051802 | 16 | 45 | 0.0 | 0.0 | 0.00 | 0.00 | 0.00 | 8 | 1008.0 |
| 20260507051207 | 16 | 45 | 0.0 | 1.6 | 0.00 | 0.00 | 0.00 | 8 | 1008.0 |
| 20260507050611 | 16 | 0 | 3.2 | 4.8 | 0.00 | 0.00 | 0.00 | 8 | 1007.0 |
| 20260507050016 | 16 | 0 | 3.2 | 3.2 | 0.00 | 0.00 | 0.00 | 8 | 1007.0 |
| 20260507045421 | 16 | 45 | 0.0 | 0.0 | 0.00 | 0.00 | 0.00 | 8 | 1007.0 |
| 20260507044825 | 16 | 45 | 1.6 | 3.2 | 0.00 | 0.00 | 0.00 | 8 | 1007.0 |
| 20260507043717 | 16 | 0 | 3.2 | 4.8 | 0.00 | 0.00 | 0.00 | 8 | 1007.0 |
| 20260507043121 | 16 | 0 | 1.6 | 6.4 | 0.00 | 0.00 | 0.00 | 8 | 1007.0 |
| 20260507042523 | 16 | 45 | 4.8 | 4.8 | 0.00 | 0.00 | 0.00 | 8 | 1007.0 |
| 20260507041928 | 16 | 135 | 0.0 | 1.6 | 0.00 | 0.00 | 0.00 | 8 | 1007.0 |
| 20260507041329 | 16 | 45 | 0.0 | 4.8 | 0.00 | 0.00 | 0.00 | 8 | 1007.0 |
| 20260507040734 | 16 | 45 | 3.2 | 4.8 | 0.00 | 0.00 | 0.00 | 8 | 1007.0 |
| 20260507040135 | 16 | 315 | 1.6 | 1.6 | 0.00 | 0.00 | 0.00 | 8 | 1007.0 |
| 20260507035539 | 16 | 0 | 3.2 | 8.0 | 0.00 | 0.00 | 0.00 | 8 | 1007.0 |
| 20260507034944 | 16 | 45 | 6.4 | 6.4 | 0.00 | 0.00 | 0.00 | 8 | 1007.0 |
| 20260507034349 | 16 | 270 | 0.0 | 4.8 | 0.00 | 0.00 | 0.00 | 8 | 1007.0 |
| 20260507033754 | 16 | 0 | 6.4 | 6.4 | 0.00 | 0.00 | 0.00 | 8 | 1007.0 |
| 20260507032645 | 16 | 293 | 0.0 | 3.2 | 0.00 | 0.00 | 0.00 | 8 | 1007.0 |
| 20260507032050 | 16 | 270 | 0.0 | 0.0 | 0.00 | 0.00 | 0.00 | 8 | 1007.0 |
| 20260507031455 | 16 | 45 | 0.0 | 1.6 | 0.00 | 0.00 | 0.00 | 8 | 1007.0 |
| 20260507030859 | 16 | 315 | 0.0 | 0.0 | 0.00 | 0.00 | 0.00 | 8 | 1007.0 |
| 20260507030303 | 16 | 180 | 0.0 | 0.0 | 0.00 | 0.00 | 0.00 | 8 | 1007.0 |
| 20260507025708 | 16 | 180 | 0.0 | 3.2 | 0.00 | 0.00 | 0.00 | 8 | 1007.0 |
| 20260507024559 | 16 | 180 | 0.0 | 0.0 | 0.00 | 0.00 | 0.00 | 8 | 1007.0 |
| 20260507024001 | 16 | 180 | 0.0 | 0.0 | 0.00 | 0.00 | 0.00 | 8 | 1007.0 |
| 20260507023405 | 16 | 180 | 0.0 | 3.2 | 0.00 | 0.00 | 0.00 | 8 | 1007.0 |
| 20260507022810 | 16 | 180 | 0.0 | 0.0 | 0.00 | 0.00 | 0.00 | 8 | 1007.0 |
| 20260507022215 | 16 | 225 | 0.0 | 1.6 | 0.00 | 0.00 | 0.00 | 8 | 1007.0 |
| 20260507021620 | 16 | 315 | 0.0 | 0.0 | 0.00 | 0.00 | 0.00 | 7 | 1006.0 |
| 20260507021024 | 16 | 180 | 0.0 | 0.0 | 0.00 | 0.00 | 0.00 | 7 | 1006.0 |
| 20260507020429 | 16 | 180 | 0.0 | 0.0 | 0.00 | 0.00 | 0.00 | 7 | 1006.0 |
| 20260507015833 | 16 | 180 | 0.0 | 0.0 | 0.00 | 0.00 | 0.00 | 7 | 1006.0 |
| 20260507015238 | 16 | 180 | 0.0 | 0.0 | 0.00 | 0.00 | 0.00 | 7 | 1006.0 |
| 20260507014643 | 17 | 135 | 0.0 | 1.6 | 0.00 | 0.00 | 0.00 | 7 | 1006.0 |
| 20260507014047 | 17 | 180 | 0.0 | 0.0 | 0.00 | 0.00 | 0.00 | 7 | 1006.0 |
| 20260507013452 | 17 | 180 | 0.0 | 0.0 | 0.00 | 0.00 | 0.00 | 7 | 1006.0 |
| 20260507012344 | 17 | 180 | 0.0 | 3.2 | 0.00 | 0.00 | 0.00 | 7 | 1006.0 |
| 20260507011749 | 17 | 135 | 0.0 | 3.2 | 0.00 | 0.00 | 0.00 | 7 | 1006.0 |
| 20260507011150 | 17 | 135 | 3.2 | 3.2 | 0.00 | 0.00 | 0.00 | 7 | 1006.0 |
| 20260507010555 | 17 | 45 | 1.6 | 3.2 | 0.00 | 0.00 | 0.00 | 7 | 1006.0 |
| 20260507010000 | 17 | 45 | 3.2 | 3.2 | 0.00 | 0.00 | 0.00 | 7 | 1006.0 |
| 20260507005401 | 17 | 0.0 | 3.2 | 0.00 | 0.00 | 0.00 | 7 | 1006.0 | |
| 20260507004806 | 17 | 135 | 0.0 | 6.4 | 0.00 | 0.00 | 0.00 | 7 | 1006.0 |
| 20260507004212 | 17 | 45 | 6.4 | 6.4 | 0.00 | 0.00 | 0.00 | 7 | 1007.0 |
| 20260507003616 | 17 | 45 | 0.0 | 0.0 | 0.00 | 0.00 | 0.00 | 7 | 1006.0 |
| 20260507003021 | 17 | 0.0 | 0.0 | 0.00 | 0.00 | 0.00 | 7 | 1006.0 | |
| 20260507002426 | 17 | 135 | 1.6 | 3.2 | 0.00 | 0.00 | 0.00 | 7 | 1006.0 |
| 20260507001831 | 17 | 180 | 0.0 | 0.0 | 0.00 | 0.00 | 0.00 | 7 | 1006.0 |
| 20260507001232 | 17 | 225 | 0.0 | 3.2 | 0.00 | 0.00 | 0.00 | 7 | 1006.0 |
| 20260507000637 | 17 | 180 | 0.0 | 1.6 | 0.00 | 0.00 | 0.00 | 7 | 1006.0 |
| 20260507000042 | 17 | 135 | 0.0 | 3.2 | 0.00 | 0.00 | 0.00 | 7 | 1006.0 |
| 20260506235447 | 17 | 135 | 0.0 | 3.2 | 0.00 | 0.00 | 0.00 | 7 | 1006.0 |
| 20260506234338 | 17 | 180 | 0.0 | 1.6 | 0.00 | 0.00 | 0.00 | 7 | 1006.0 |
| 20260506233743 | 17 | 1.6 | 4.8 | 0.00 | 0.00 | 0.00 | 7 | 1006.0 | |
| 20260506233147 | 17 | 135 | 0.0 | 1.6 | 0.00 | 0.00 | 0.00 | 7 | 1006.0 |
| 20260506232552 | 17 | 0 | 0.0 | 3.2 | 0.00 | 0.00 | 0.00 | 7 | 1006.0 |
| 20260506231957 | 17 | 45 | 3.2 | 3.2 | 0.00 | 0.00 | 0.00 | 7 | 1006.0 |
| 20260506231402 | 17 | 45 | 0.0 | 0.0 | 0.00 | 0.00 | 0.00 | 7 | 1006.0 |
| 20260506230803 | 17 | 135 | 0.0 | 0.0 | 0.00 | 0.00 | 0.00 | 7 | 1006.0 |
| 20260506230205 | 17 | 135 | 0.0 | 1.6 | 0.00 | 0.00 | 0.00 | 7 | 1006.0 |
| 20260506225610 | 17 | 180 | 0.0 | 0.0 | 0.00 | 0.00 | 0.00 | 7 | 1006.0 |
| 20260506225014 | 17 | 180 | 0.0 | 1.6 | 0.00 | 0.00 | 0.00 | 7 | 1006.0 |